DELTA 1 DEB, 7036

Orbit data source: Space-Track

DELTA 1 DEB, 7036 is space debris in SSO originally from a launch on Tue, 06 Nov 1973 UTC launched from the Air Force Western Test Range (AFWTR). Debris objects in space refer to the collection of defunct objects orbiting the Earth. Examples of debris include non-operational satellites, rocket bodies, and fragments generated from explosions, collisions, or faulty payload assembly.

Loading next visibility...
Identifier
7036, 1973-086AC
Orbit
SSO
Country
Flag of USUS
Related business
Manufacturer
Unknown
Mission
Spacecraft
Bus & Motor
Unknown
Mass
Unknown
Launch date (UTC)
1973-11-06 (52 years ago)
Launch vehicle
Unknown
Launch site
Air Force Western Test Range (AFWTR)
Object type
Payload
Rocket body
Debris
Shape & HBR
Unknown shape, 0.1 m
Radar Cross Section
Medium (>0.1 m² and <1 m²)

Expand to show TLE details & history
Last TLE update: 15 hours ago

TLE from 15 hours ago
0 DELTA 1 DEB
1 07036U 73086AC  25303.86741525  .00001028  00000-0  65365-2 0  9999
2 07036 101.5761 277.7040 0051334 297.1725  93.4197 12.55343056368368
Epoch: 2025-10-30T20:49Z
TLE epoch observation values (Epoch: 2025-10-30T20:49:04.677Z)
Latitude
30.52756°
Longitude
-80.88895°
Altitude
1,448.397 km
Speed
7.139 km/s
True Right ascension
18h 03m 12s
True Declination
30° 23' 26"
Sunlit
Object was in daylight at epoch
Visualization orbit readout
Latitude
Unknown
Longitude
Unknown
Altitude
Unknown
Speed
Unknown
Apparent Right ascension
Unknown
Apparent Declination
Unknown
Sunlit
N/A
Visualization observer readout
Local Sidereal Time
07:17:47
Azimuth
Unknown
Elevation
Unknown
Doppler factor
Unknown
Orbital elements
Apogee altitude
1,479.888 km
Perigee altitude
1,399.623 km
Semi-major axis
7,817.892 km
Eccentricity
0.00513
Inclination
101.5761°
RAAN
277.704°
Arg. of periapsis
297.1725°
True anomaly
94.00666°
Mean anomaly
93.4197°
Eccentric anomaly
93.7132°
Mean motion
3.13985 °/min
Orbital period
114.66 mins
BSTAR
0.0065365
Loading maneuver chart data...
Computing Atmospheric mass density...
Loading historical data...
Loading historical data...
Loading historical data...
Loading historical data...
Loading historical data...
Loading historical data...
Loading historical data...

Documentation

Showing up to 5 results
|